Theta_e
313 314 316 316 314 312 313 313 314 318 317 317 319 319 319 319 319 313 308 315 319 324 324 319 319 318 317 310 313 313 303 299 298 300 300 308 310 314 316 317 317 319 321 324 327
313 314 316 316 317 317 316 316 317 317 316 315 318 318 318 319 311 306 313 320 324 324 318 316 313 318 310 309 309 311 304 301 300 301 303 307 311 313 314 314 315 317 321 326 324
312 313 316 316 317 317 318 318 317 316 315 314 317 317 318 318 304 304 320 322 324 323 320 317 315 313 307 308 305 305 306 302 299 301 307 308 310 313 313 311 315 316 318 321 322
311 313 314 316 315 316 317 317 316 315 314 313 316 318 319 312 293 308 318 319 321 322 318 314 311 308 305 303 304 299 300 301 301 302 305 307 310 309 313 311 314 320 321 321 321
310 312 314 315 315 315 316 316 315 315 314 315 318 319 313 302 301 314 316 315 316 317 314 312 309 307 301 301 301 299 300 301 302 303 304 306 305 307 308 311 316 321 322 322 322
310 312 313 315 316 315 314 315 315 314 315 317 318 317 307 296 312 315 314 313 313 313 312 314 312 308 302 299 302 300 300 300 301 301 301 303 302 303 306 315 318 319 318 322 323
310 311 313 314 315 314 315 315 315 315 315 317 317 312 306 302 312 315 314 312 314 314 311 313 314 309 304 298 301 301 297 300 300 300 299 301 298 299 306 315 314 316 320 321 322
309 310 312 313 315 314 314 314 314 315 316 317 315 311 302 313 316 312 314 312 314 315 313 314 314 307 304 304 303 300 303 300 300 300 299 301 301 299 305 312 314 315 318 319 320
309 310 312 313 313 314 313 314 315 315 316 315 310 307 300 314 307 310 311 307 309 310 313 313 310 304 304 301 299 299 297 300 298 300 298 299 301 301 303 307 310 313 316 317 319
308 309 312 311 312 312 313 315 316 314 312 311 310 302 305 300 306 308 309 309 306 306 305 306 305 300 300 300 294 294 297 297 299 300 299 298 300 301 302 304 305 308 312 314 316
307 309 310 311 310 310 308 306 304 302 303 299 299 300 301 303 307 304 305 305 305 302 297 300 298 295 298 300 299 301 299 298 298 300 298 299 299 303 305 302 303 305 306 308 312
307 308 310 311 309 307 306 297 295 297 295 302 301 301 303 303 299 301 306 300 300 295 297 297 292 297 299 302 301 298 296 294 297 298 298 297 296 299 300 301 303 304 305 306 308
306 307 309 309 306 304 300 298 301 301 296 298 300 300 300 302 298 298 302 301 298 294 295 294 294 298 297 298 297 296 296 294 294 295 295 294 293 294 297 298 300 302 303 304 305
305 306 308 310 306 300 298 299 300 302 291 290 294 299 302 302 298 302 302 300 297 293 295 294 297 296 296 293 296 291 296 296 293 292 289 293 289 292 295 298 299 299 302 302 303
304 305 306 306 302 300 298 299 301 298 281 291 294 304 300 298 297 300 303 301 293 292 294 291 294 294 293 293 295 291 296 294 293 291 290 289 289 291 294 295 297 298 299 300 301
303 304 303 301 302 298 298 300 299 288 278 288 293 291 292 294 295 297 299 302 298 296 294 292 296 295 294 294 295 295 293 291 291 290 285 286 287 289 292 292 295 296 297 298 298
302 302 299 298 297 297 299 297 287 282 286 285 288 290 289 288 290 292 293 293 291 288 288 292 292 294 296 293 295 294 290 284 283 284 281 287 285 289 293 293 294 295 296 298 299
301 298 296 294 296 297 298 293 282 278 284 290 289 289 286 288 288 289 290 289 291 292 288 286 284 291 294 293 291 290 289 284 276 279 282 285 282 288 293 294 294 295 296 298 299
297 294 296 296 295 298 297 285 284 283 288 288 287 285 285 288 287 287 287 289 289 289 287 285 284 290 292 293 292 290 288 290 284 281 281 284 287 290 292 292 293 294 296 297 299
293 291 292 293 295 299 291 285 283 288 291 289 283 285 282 285 284 284 284 287 286 290 290 288 282 287 291 294 294 292 293 286 287 278 275 280 283 284 289 291 292 294 295 296 297
292 287 291 292 298 295 286 285 285 289 292 289 286 285 286 285 285 284 284 288 289 289 291 289 287 284 290 287 288 289 288 288 288 286 279 277 282 291 291 292 292 293 294 295 296
289 286 291 295 288 281 284 282 288 289 291 290 290 288 287 287 285 285 285 288 290 290 288 289 287 283 284 288 288 290 289 289 283 280 284 283 283 291 292 292 291 292 294 297 297
288 287 291 294 284 282 281 283 285 288 289 289 288 289 289 287 283 286 287 291 291 289 288 290 285 280 280 284 287 286 287 289 288 287 282 280 283 291 292 291 293 294 296 296 296
286 283 286 286 281 283 281 280 282 286 288 289 289 290 288 286 287 285 286 291 292 292 293 292 284 282 280 281 285 283 285 287 287 283 282 284 285 290 292 292 293 295 295 295 295
283 284 283 281 281 284 284 283 281 281 285 288 287 288 287 281 283 285 288 289 290 291 290 290 284 283 284 284 285 285 284 285 284 285 281 284 285 288 291 292 293 294 293 292 293
281 280 280 278 281 283 285 280 283 283 284 283 283 288 288 283 287 284 287 289 289 289 289 289 282 283 280 284 284 282 285 286 286 286 286 286 285 292 293 293 292 291 291 290 290
284 283 286 281 280 284 283 282 283 285 285 287 287 288 284 286 287 288 289 289 290 288 285 286 283 281 278 278 278 277 280 284 285 285 285 281 286 290 288 288 289 289 290 289 290
Wind_Speed
22 22 24 21 5 9 11 10 5 16 15 19 11 14 16 14 13 3 5 1 4 7 6 8 4 8 6 4 4 3 3 5 7 11 9 9 6 2 1 8 3 3 1 2 15
24 25 24 21 15 9 11 12 13 15 14 13 18 9 12 13 15 12 3 1 7 7 7 9 10 14 5 3 4 4 4 5 2 3 9 11 7 10 7 9 5 5 3 12 15
22 25 26 19 15 18 23 21 18 18 14 10 13 5 3 5 4 4 8 6 8 6 6 4 4 5 5 4 2 1 3 7 3 3 11 10 8 4 9 8 7 11 11 15 14
21 24 25 20 14 12 17 17 16 15 13 7 9 9 8 4 6 3 6 5 7 8 7 7 4 5 7 9 3 3 4 2 5 3 6 9 9 5 6 3 2 5 14 15 15
19 22 23 23 11 11 15 12 11 11 11 6 8 10 2 7 4 7 7 1 6 6 8 6 5 3 7 9 4 3 6 5 5 8 8 7 4 0 4 2 1 8 12 14 15
20 21 22 21 15 8 10 11 12 7 7 8 8 9 2 6 7 9 7 2 7 7 7 4 3 4 7 5 2 4 10 9 3 5 5 5 3 1 2 2 6 9 11 13 15
17 18 20 19 14 9 9 11 6 5 1 9 11 3 12 6 6 10 5 2 3 3 5 1 3 3 4 9 1 11 10 9 7 3 4 1 3 2 3 5 8 9 10 11 13
19 16 16 15 16 12 10 8 2 1 5 12 9 2 5 2 7 10 9 9 9 5 4 2 4 9 2 9 1 4 4 7 4 4 1 4 4 4 2 7 9 9 9 12 13
17 17 17 15 14 9 6 6 7 4 7 10 6 6 4 11 5 6 6 8 6 6 5 3 1 5 2 5 3 4 5 5 5 2 1 1 1 3 2 6 8 9 11 11 13
17 17 17 18 9 6 3 9 8 3 6 1 3 4 7 7 5 5 5 7 7 5 4 2 3 5 2 2 7 5 6 3 4 3 1 2 6 5 6 8 10 11 12 12 14
17 15 15 15 9 8 2 4 4 7 9 7 1 8 4 7 3 3 3 5 4 3 3 3 4 6 8 3 5 9 7 6 3 4 3 1 7 11 7 10 12 11 10 11 14
18 17 14 8 15 9 6 6 2 1 7 3 1 1 4 2 6 10 2 4 2 5 3 7 5 2 5 9 12 7 10 4 3 4 3 5 12 10 5 7 8 11 11 11 11
18 18 15 5 4 9 10 5 3 1 3 5 3 3 4 6 6 12 6 2 8 9 5 6 1 1 9 10 14 6 5 5 4 4 3 10 2 5 4 2 4 5 4 6 9
17 20 16 2 3 0 4 2 3 4 4 11 11 7 6 7 6 3 5 3 7 9 8 8 4 4 10 9 3 5 3 7 5 4 1 6 2 4 6 10 13 12 12 10 10
16 18 12 13 6 2 3 4 1 1 4 5 6 5 7 8 4 10 7 8 7 7 1 3 3 6 8 4 2 5 4 6 4 5 3 4 1 4 2 7 13 14 13 12 10
12 15 11 3 2 4 2 2 2 1 4 2 4 4 5 9 7 10 7 5 3 6 11 5 2 4 3 4 5 11 6 4 3 2 2 3 4 4 4 6 11 12 12 12 12
9 11 6 2 3 6 5 1 2 4 3 1 4 3 5 3 4 4 4 6 4 5 6 6 3 3 2 5 2 1 2 1 2 1 2 2 3 5 6 7 6 13 11 11 10
5 6 4 3 4 5 2 1 5 0 3 1 2 5 4 3 3 2 3 4 1 2 4 4 3 3 4 3 1 2 2 1 2 2 2 1 2 6 7 6 5 7 8 9 12
3 2 1 4 7 2 1 3 5 6 5 7 3 4 3 1 2 2 3 3 3 2 3 5 2 3 5 2 4 1 3 2 6 3 1 2 2 6 7 4 7 7 10 12 13
2 1 1 9 5 1 4 2 2 5 5 1 2 1 4 5 3 2 1 1 1 2 2 2 5 2 2 2 6 2 4 2 2 3 2 0 5 7 9 10 3 11 11 8 8
2 3 1 8 2 4 2 4 4 3 4 6 6 5 2 4 3 3 2 0 1 1 0 2 2 1 1 5 1 2 0 4 2 2 1 0 2 4 12 8 4 4 3 7 11
2 1 3 5 4 2 4 4 3 5 2 1 3 6 7 6 4 4 6 1 2 2 5 0 3 3 2 1 2 1 2 2 2 4 2 1 7 5 6 6 2 3 4 13 11
3 1 2 2 5 3 2 1 2 4 4 4 3 1 3 8 7 5 5 2 2 3 6 6 1 4 2 1 1 2 2 4 4 2 7 4 4 4 7 7 2 10 17 15 13
3 3 2 3 2 9 6 5 5 2 3 2 3 3 4 2 2 7 6 2 1 1 4 2 2 3 5 4 4 6 5 3 3 3 4 12 15 10 12 12 11 15 13 11 10
1 3 1 6 5 6 7 10 7 6 2 3 3 6 7 5 2 3 4 4 3 3 3 1 3 0 2 4 3 4 7 8 10 10 10 14 17 20 13 15 16 12 9 11 10
6 6 1 2 5 11 12 12 14 6 11 7 4 12 7 7 6 9 8 5 4 3 3 1 4 2 2 4 1 4 12 14 16 18 18 21 27 21 15 10 5 7 9 9 10
3 1 1 8 6 9 8 9 15 11 8 3 11 8 4 2 4 6 8 8 5 6 4 4 6 3 2 3 2 10 20 21 12 11 14 15 15 6 5 6 5 8 8 10 8
Wind_Direction
358 353 344 356 31 192 190 193 168 102 67 47 12 128 131 130 132 157 84 18 121 126 119 117 93 116 66 40 294 265 226 187 169 173 138 155 151 126 88 144 139 128 141 135 141
1 350 354 10 40 82 137 183 119 101 55 38 31 106 142 160 110 67 275 18 125 136 143 148 144 132 91 111 315 262 244 167 103 128 154 156 172 147 172 155 158 157 108 142 140
1 350 353 13 43 65 90 96 103 99 76 35 31 52 345 279 79 69 21 82 112 110 82 87 175 121 101 82 276 279 246 136 110 117 144 138 145 156 156 191 193 189 164 163 161
2 354 353 10 22 61 86 107 108 106 108 52 19 354 332 223 138 28 4 74 80 110 99 97 178 157 128 147 241 227 79 86 141 125 128 144 129 159 202 63 26 183 168 168 171
8 355 359 355 11 36 77 104 114 91 105 82 26 343 324 74 66 346 333 25 104 122 122 145 213 144 137 132 153 211 117 78 104 112 90 121 103 75 197 349 216 168 168 178 181
15 0 4 358 2 40 89 89 97 88 50 56 27 324 119 70 328 312 325 157 118 138 134 167 230 109 88 89 168 134 113 105 79 103 80 127 113 235 120 105 147 168 178 192 193
14 8 2 5 17 58 73 83 90 105 65 46 20 21 65 28 329 328 17 89 117 80 128 214 271 42 117 99 231 122 105 117 47 1 83 131 146 196 72 164 177 187 190 194 195
360 6 8 18 34 49 27 40 26 261 16 30 6 72 84 313 313 16 20 64 67 55 69 102 148 98 75 123 144 127 147 146 35 352 34 260 161 126 140 199 191 196 208 202 203
359 358 13 14 41 33 340 320 302 336 10 16 30 31 33 325 19 346 30 74 70 45 30 47 251 81 21 106 77 7 141 144 138 34 110 330 103 126 162 211 223 213 217 224 223
1 355 17 22 42 16 311 292 291 296 10 348 104 88 357 331 311 343 4 48 87 81 45 25 91 91 61 177 171 156 144 126 139 70 102 174 252 207 194 226 236 226 222 229 234
351 358 14 37 32 30 22 344 5 39 27 36 54 85 289 298 320 347 109 146 69 102 115 21 89 133 165 182 106 121 124 124 81 51 310 297 280 264 233 228 249 255 251 241 244
350 353 10 17 41 66 48 66 77 333 75 50 161 302 237 333 44 9 68 118 65 67 4 62 87 188 102 127 122 114 130 102 99 36 336 335 290 319 316 263 286 282 264 269 270
353 350 357 36 84 52 76 67 334 232 76 358 7 349 335 340 60 359 17 88 83 64 68 80 97 169 121 123 116 82 141 150 112 96 59 326 289 29 34 8 8 340 309 316 297
360 349 358 358 65 186 67 326 257 252 83 352 351 18 342 312 68 332 11 25 54 86 91 83 309 101 97 79 96 100 67 108 99 182 143 356 121 48 3 84 56 38 44 30 6
3 358 1 26 128 60 16 322 216 198 101 0 338 298 322 64 306 9 335 32 59 11 248 53 57 55 61 39 332 109 112 91 89 91 172 22 201 96 270 36 28 18 10 16 6
5 358 352 65 47 74 307 254 181 343 102 346 313 357 25 17 18 331 20 38 189 62 54 65 22 30 64 46 84 138 110 85 94 142 101 348 334 67 42 3 24 48 35 18 3
26 26 28 6 54 329 315 166 33 54 322 79 51 48 64 41 50 18 20 20 50 71 39 21 14 355 42 86 43 110 162 155 133 99 113 348 299 64 33 43 79 76 50 31 23
37 55 19 22 358 332 215 61 61 330 218 130 124 78 74 1 44 30 124 133 69 96 118 149 177 14 358 19 151 69 320 19 139 144 117 25 221 108 90 103 101 90 43 30 33
107 37 62 10 345 358 47 51 152 196 153 152 113 101 104 127 124 99 27 103 60 356 148 160 77 326 35 12 340 109 65 16 99 28 253 324 179 77 137 114 115 59 38 35 37
92 84 66 335 338 289 67 133 140 160 142 157 111 262 153 157 134 119 110 11 77 43 326 132 115 33 342 251 62 21 123 109 30 147 183 166 290 135 171 156 81 32 39 40 23
75 131 5 334 250 55 181 189 181 208 189 165 150 134 193 139 123 107 144 4 212 32 52 132 74 25 192 28 113 101 130 52 81 348 111 156 235 179 174 156 37 29 37 358 342
146 84 12 308 70 348 168 200 157 165 225 182 130 120 154 159 134 153 182 176 196 201 145 157 102 103 85 144 302 255 179 192 220 151 102 155 247 181 140 164 210 33 354 343 358
145 73 21 290 157 180 160 204 255 149 205 176 161 244 193 162 131 164 160 189 210 184 163 174 111 118 105 167 214 214 74 98 107 164 206 212 220 94 165 221 318 346 340 339 339
136 130 359 62 11 145 157 194 197 214 241 174 140 114 129 100 343 159 147 150 94 64 45 80 134 203 179 120 124 149 169 174 177 197 240 239 268 220 262 302 319 319 324 325 320
108 211 129 175 201 165 195 167 159 183 231 223 185 212 163 126 84 162 143 129 72 15 45 67 139 142 76 112 93 171 194 198 215 225 227 265 270 268 271 284 294 306 305 314 313
150 158 76 103 135 141 179 197 180 172 163 215 200 187 190 148 188 187 152 175 157 115 117 14 134 92 39 76 120 250 239 236 236 242 253 257 268 282 272 271 244 267 281 284 293
130 346 140 153 160 173 203 184 196 152 219 227 182 153 178 184 109 72 77 77 106 133 129 120 132 133 221 36 346 275 228 219 218 219 221 228 241 282 253 260 242 279 284 282 275